Asteroid (2867) Steins
(Preview)
|
Solar System
|
2
|
2432
|
|
|
Title: The Cratering History of Asteroid (2867) Steins Authors: S. Marchi (1), C. Barbieri (1), M. Kueppers (2), F. Marzari (1), B. Davidsson (3), H.U. Keller (4), S. Besse (5), P. Lamy (5), S. Mottola (6), M. Massironi (1), G. Cremonese (7) ((1) Padova University, (2) ESA-ESAC Madrid, (3) Uppsala U...
|
|
|
|
|
|
Asteroid 2010 HS20
(
1 2
)
(Preview)
|
Solar System
|
11
|
6235
|
|
|
Orbital elements: 2010 HS20 Earth MOID = 0.0012 AU Epoch 2010 July 23.0 TT = JDT 2455400.5 MPC M 14.46601 (2000.0) P Q n 0.26941022 Peri. 157.41161 -0.19985142 +0.97904690 a 2.3742512 Node 101.04264 -0.90494581 -0.16914272 e 0.5820794 Incl. 2.28146 -0.37567604 -0.11339269 P 3.66 H 23.2 G 0.15 U 6 [...
|
|
|
|
|
|
Asteroid (8) Flora
(
1 2
)
(Preview)
|
Solar System
|
12
|
8063
|
|
|
8 Flora is a large, bright main belt asteroid. It is the innermost large asteroid: no asteroid closer to the Sun has a diameter above 25 kilometres or two-elevenths that of Flora itself, and not until the tiny 149 Medusa was discovered was a single asteroid orbiting at a closer mean distance known. It i...
|
|
|
|
|
|
Asteroid (472) Roma
(Preview)
|
Events
|
6
|
4804
|
|
|
Asteroid (472) Roma (13.5 mag) will occult the 2.7 mag star delta Oph (HD 146051) in the constellation Ophiuchus at around 21:57 UT, 8th July, 2010
The 7.5 second event is visible from Europe, Brazil and Bolivia.
Position (2000): RA 16 14 20.7395, Dec -03 41 39.563
|
|
|
|
|
|
Asteroid 65 Cybele
(Preview)
|
Asteroids
|
6
|
3193
|
|
|
Frozen water on asteroids may be more common than previously thought, according to new research that will help to support the idea they might have carried the key ingredient for life to the Earth. Water ice and organic molecules that help to form the basis of life have been discovered on a second aster...
|
|
|
|
|
|
M-type asteroids
(Preview)
|
Asteroids
|
0
|
3038
|
|
|
Title: Spectroscopic survey of M--type asteroids Authors: S. Fornasier, B. E. Clark, E. Dotto, A. Migliorini, M. Ockert-Bell, M.A. Barucci M-type asteroids, as defined in the Tholen taxonomy (Tholen, 1984), are medium albedo bodies supposed to have a metallic composition and to be the progenit...
|
|
|
|
|